Weather History for KHBG - August, 2013

Change the Weather History Date:

Friday, August 9, 2013

  Actual Average Record
Temperature  
Mean Temperature 83 °F 82 °F  
Max Temperature 90 °F 93 °F 99 °F (1954)
Min Temperature 75 °F 71 °F 58 °F (1989)
Degree Days  
Heating Degree Days 0 0  
Month to date heating degree days 0 0  
Since 1 June heating degree days 0 0  
Since 1 July heating degree days 0 0  
Cooling Degree Days 18 17  
Month to date cooling degree days 169 153  
Year to date cooling degree days 1449 1513  
Since 1 June cooling degree days 1107 1098  
Growing Degree Days 32 (Base 50)    
Moisture  
Dew Point 75 °F    
Average Humidity 82    
Maximum Humidity 94    
Minimum Humidity 70    
Precipitation  
Precipitation 0.01 in 0.15 in 1.58 in (1965)
Month to date precipitation 1.95 1.37  
Year to date precipitation 50.09 38.80  
Sea Level Pressure  
Sea Level Pressure 30.00 in    
Wind  
Wind Speed 3 mph (SE)    
Max Wind Speed 12 mph    
Max Gust Speed -    
Visibility 9 miles    
Events Rain , Thunderstorm    
T = Trace of Precipitation, MM = Missing Value Source: NWS Daily Summary

Daily Weather History Graph

Daily Weather History Graph

Search for Another Location

Airport or City:

Trip Planner

Search our weather history database for the weather conditions in past years. The results will help you decide how hot, cold, wet, or windy it might be!

Date:

Astronomy

Aug. 09, 2013 Rise Set
Actual Time 6:19 AM CDT 7:45 PM CDT
Civil Twilight 5:53 AM CDT 8:11 PM CDT
Nautical Twilight 5:22 AM CDT 8:42 PM CDT
Astronomical Twilight 4:49 AM CDT 9:14 PM CDT
Moon 8:50 AM CDT (8/9) 9:11 PM CDT (8/9)
Length of Visible Light 14h 18m
Length of Day
13h 26m
Waxing Crescent, 8% of the Moon is Illuminated
Aug 9
Waxing Crescent
Aug 14
First Quarter
Aug 20
Full
Aug 28
Last Quarter
Sep 5
New

Hourly Weather History & Observations

Time (CDT) Temp. Heat Index Dew Point Humidity Pressure Visibility Wind Dir Wind Speed Gust Speed Precip Events Conditions
12:53 AM 79.0 °F - 75.9 °F 90% 29.96 in 10.0 mi Calm Calm - N/A   Clear
1:53 AM 78.1 °F - 75.9 °F 93% 29.97 in 8.0 mi Calm Calm - N/A   Clear
2:53 AM 78.1 °F - 75.9 °F 93% 29.97 in 9.0 mi Calm Calm - N/A   Clear
3:53 AM 77.0 °F - 75.0 °F 94% 29.96 in 10.0 mi Calm Calm - N/A   Scattered Clouds
4:53 AM 75.9 °F - 73.9 °F 94% 29.96 in 8.0 mi Calm Calm - N/A   Clear
5:53 AM 75.9 °F - 73.9 °F 94% 29.98 in 8.0 mi Calm Calm - N/A   Clear
6:53 AM 75.9 °F - 73.9 °F 94% 29.99 in 6.0 mi Calm Calm - N/A   Clear
7:11 AM 75.2 °F - 73.4 °F 94% 30.00 in 6.0 mi SE 3.5 mph - N/A   Partly Cloudy
7:36 AM 77.0 °F - 75.2 °F 94% 30.00 in 5.0 mi ESE 3.5 mph - N/A   Mostly Cloudy
7:53 AM 78.1 °F - 75.9 °F 93% 30.00 in 7.0 mi ESE 3.5 mph - N/A   Mostly Cloudy
8:27 AM 80.6 °F 86.2 °F 75.2 °F 84% 30.01 in 9.0 mi ESE 8.1 mph - N/A   Mostly Cloudy
8:38 AM 80.6 °F 86.2 °F 75.2 °F 84% 30.01 in 10.0 mi East 6.9 mph - N/A   Scattered Clouds
8:48 AM 80.6 °F 87.1 °F 77.0 °F 89% 30.02 in 10.0 mi East 5.8 mph - N/A   Mostly Cloudy
8:53 AM 81.0 °F 87.3 °F 75.9 °F 85% 30.01 in 10.0 mi East 4.6 mph - N/A   Mostly Cloudy
9:03 AM 82.4 °F 90.9 °F 77.0 °F 84% 30.02 in 10.0 mi SE 4.6 mph - N/A   Scattered Clouds
9:53 AM 84.9 °F 95.3 °F 77.0 °F 77% 30.01 in 10.0 mi SE 4.6 mph - N/A   Clear
10:25 AM 84.2 °F 94.1 °F 77.0 °F 79% 30.02 in 10.0 mi East 5.8 mph - N/A   Mostly Cloudy
10:53 AM 87.1 °F 98.8 °F 77.0 °F 72% 30.02 in 10.0 mi Calm Calm - N/A   Mostly Cloudy
11:12 AM 87.8 °F 97.6 °F 75.2 °F 66% 30.02 in 10.0 mi Variable 3.5 mph - N/A   Mostly Cloudy
11:53 AM 88.0 °F 100.2 °F 77.0 °F 70% 30.01 in 10.0 mi Variable 4.6 mph - N/A   Mostly Cloudy
12:53 PM 89.1 °F 99.1 °F 75.0 °F 63% 29.99 in 10.0 mi ESE 6.9 mph - 0.00 in Thunderstorm Mostly Cloudy
1:53 PM 80.1 °F 83.8 °F 72.0 °F 76% 30.00 in 10.0 mi SSE 11.5 mph - N/A   Clear
2:05 PM 80.6 °F 84.6 °F 71.6 °F 74% 30.01 in 10.0 mi SSE 9.2 mph - N/A Thunderstorm Clear
2:23 PM 80.6 °F 84.6 °F 71.6 °F 74% 30.00 in 10.0 mi SE 8.1 mph - N/A   Partly Cloudy
2:53 PM 82.0 °F 87.4 °F 73.0 °F 74% 29.99 in 10.0 mi South 4.6 mph - N/A Thunderstorm Clear
3:10 PM 82.4 °F 88.2 °F 73.4 °F 74% 30.00 in 10.0 mi SSE 8.1 mph - N/A   Clear
3:53 PM 82.0 °F 88.6 °F 75.0 °F 79% 29.99 in 10.0 mi South 6.9 mph - N/A   Clear
4:53 PM 84.0 °F 91.2 °F 73.9 °F 72% 29.98 in 10.0 mi South 4.6 mph - N/A   Clear
5:53 PM 84.0 °F 91.9 °F 75.0 °F 74% 29.98 in 10.0 mi SE 3.5 mph - N/A   Clear
6:53 PM 84.0 °F 92.6 °F 75.9 °F 76% 29.99 in 10.0 mi South 4.6 mph - N/A   Partly Cloudy
7:11 PM 84.2 °F 92.3 °F 75.2 °F 74% 30.00 in 10.0 mi South 6.9 mph - N/A Thunderstorm Thunderstorm
7:36 PM 82.4 °F 89.5 °F 75.2 °F 79% 30.02 in 10.0 mi SSE 5.8 mph - N/A   Clear
7:53 PM 82.0 °F 88.6 °F 75.0 °F 79% 30.01 in 10.0 mi Calm Calm - 0.00 in Rain Light Rain
8:53 PM 79.0 °F - 75.9 °F 90% 30.03 in 10.0 mi Calm Calm - 0.01 in   Clear
9:53 PM 79.0 °F - 75.9 °F 90% 30.06 in 10.0 mi East 3.5 mph - N/A   Partly Cloudy
10:53 PM 78.1 °F - 75.9 °F 93% 30.04 in 10.0 mi Calm Calm - N/A   Clear
11:53 PM 78.1 °F - 75.0 °F 90% 30.05 in 10.0 mi Calm Calm - N/A   Clear